2023/03/08 00:00:00, 0.5, 5.6
2023/03/08 00:10:00, 0.5, 5.8
2023/03/08 00:20:00, 0.5, 5.5
2023/03/08 00:30:00, 0.5, 5.6
2023/03/08 00:40:00, 0.5, 5.2
2023/03/08 00:50:00, 0.5, 4.9
2023/03/08 01:00:00, 0.5, 4.8
2023/03/08 01:10:00, 0.6, 5.0
2023/03/08 01:20:00, 0.6, 4.7
2023/03/08 01:30:00, 0.6, 5.0
2023/03/08 01:40:00, 0.6, 5.0
2023/03/08 01:50:00, 0.6, 4.9
2023/03/08 02:00:00, 0.6, 5.1
2023/03/08 02:10:00, 0.5, 5.3
2023/03/08 02:20:00, 0.5, 5.4
2023/03/08 02:30:00, 0.6, 5.2
2023/03/08 02:40:00, 0.6, 5.4
2023/03/08 02:50:00, 0.6, 6.0
2023/03/08 03:00:00, 0.6, 5.6
2023/03/08 03:10:00, 0.6, 5.9
2023/03/08 03:20:00, 0.6, 5.6
2023/03/08 03:30:00, 0.6, 5.2
2023/03/08 03:40:00, 0.6, 5.4
2023/03/08 03:50:00, 0.6, 5.1
2023/03/08 04:00:00, 0.6, 5.1
2023/03/08 04:10:00, 0.6, 4.8
2023/03/08 04:20:00, 0.6, 5.1
2023/03/08 04:30:00, 0.5, 5.0
2023/03/08 04:40:00, 0.5, 5.0
2023/03/08 04:50:00, 0.5, 5.2
2023/03/08 05:00:00, 0.5, 5.1
2023/03/08 05:10:00, 0.5, 4.9
2023/03/08 05:20:00, 0.5, 4.9
2023/03/08 05:30:00, 0.5, 6.1
2023/03/08 05:40:00, 0.5, 5.9
2023/03/08 05:50:00, 0.5, 4.9
2023/03/08 06:00:00, 0.5, 5.8
2023/03/08 06:10:00, 0.6, 6.3
2023/03/08 06:20:00, 0.5, 6.5
2023/03/08 06:30:00, 0.4, 5.6
2023/03/08 06:40:00, 0.4, 5.5
2023/03/08 06:50:00, 0.4, 5.6
2023/03/08 07:00:00, 0.4, 5.7
2023/03/08 07:10:00, 0.4, 6.5
2023/03/08 07:20:00, 0.4, 6.9
2023/03/08 07:30:00, 0.3, 7.1
2023/03/08 07:40:00, 0.3, 7.6
2023/03/08 07:50:00, 0.3, 7.8
2023/03/08 08:00:00, 0.3, 8.6
2023/03/08 08:10:00, 0.3, 9.0
2023/03/08 08:20:00, 0.3, 9.8
2023/03/08 08:30:00, 0.1,10.7
2023/03/08 08:40:00, 0.0,12.3
2023/03/08 08:50:00, 0.0,13.1
2023/03/08 09:00:00, 0.0,13.5
2023/03/08 09:10:00, 0.0,13.9
2023/03/08 09:20:00, 0.1,14.2
2023/03/08 09:30:00, 0.1,14.6
2023/03/08 09:40:00, 0.0,14.1
2023/03/08 09:50:00, 0.0,13.8
2023/03/08 10:00:00, 0.0,13.2
2023/03/08 10:10:00, 0.0,13.0
2023/03/08 10:20:00, 0.0,13.1
2023/03/08 10:30:00, 0.0,13.8
2023/03/08 10:40:00, 0.0,13.8
2023/03/08 10:50:00, 0.0,13.9
2023/03/08 11:00:00, 0.0,14.3
2023/03/08 11:10:00, 0.0,14.8
2023/03/08 11:20:00, 0.0,15.2
2023/03/08 11:30:00, 0.0,15.9
2023/03/08 11:40:00, 0.0,16.0
2023/03/08 11:50:00, 0.0,17.6
2023/03/08 12:00:00, 0.0,18.6
2023/03/08 12:10:00, 0.0,19.0
2023/03/08 12:20:00, 0.0,18.8
2023/03/08 12:30:00, 0.0,19.2
2023/03/08 12:40:00, 0.0,19.2
2023/03/08 12:50:00, 0.0,19.5
2023/03/08 13:00:00, 0.0,19.9
2023/03/08 13:10:00, 0.0,19.8
2023/03/08 13:20:00, 0.0,18.4
2023/03/08 13:30:00, 0.0,19.0
2023/03/08 13:40:00, 0.0,19.3
2023/03/08 13:50:00, 0.0,17.1
2023/03/08 14:00:00, 0.0,18.3
2023/03/08 14:10:00, 0.0,17.2
2023/03/08 14:20:00, 0.0,17.3
2023/03/08 14:30:00, 0.0,17.4
2023/03/08 14:40:00, 0.0,17.6
2023/03/08 14:50:00, 0.0,18.1
2023/03/08 15:00:00, 0.0,18.3
2023/03/08 15:10:00, 0.0,17.4
2023/03/08 15:20:00, 0.0,17.8
2023/03/08 15:30:00, 0.0,17.3
2023/03/08 15:40:00, 0.0,16.9
2023/03/08 15:50:00, 0.1,17.1
2023/03/08 16:00:00, 0.0,17.3
2023/03/08 16:10:00, 0.0,17.2
2023/03/08 16:20:00, 0.1,16.6
2023/03/08 16:30:00, 0.1,16.5
2023/03/08 16:40:00, 0.1,14.8
2023/03/08 16:50:00, 0.0,14.3
2023/03/08 17:00:00, 0.0,13.8
2023/03/08 17:10:00, 0.1,13.8
2023/03/08 17:20:00, 0.2,13.5
2023/03/08 17:30:00, 0.2,13.1
2023/03/08 17:40:00, 0.2,12.1
2023/03/08 17:50:00, 0.3,11.7
2023/03/08 18:00:00, 0.4,12.1
2023/03/08 18:10:00, 0.4,11.7
2023/03/08 18:20:00, 0.4,11.2
2023/03/08 18:30:00, 0.4,10.9
2023/03/08 18:40:00, 0.4,10.4
2023/03/08 18:50:00, 0.3,10.2
2023/03/08 19:00:00, 0.3, 9.6
2023/03/08 19:10:00, 0.3, 9.1
2023/03/08 19:20:00, 0.3, 9.0
2023/03/08 19:30:00, 0.4, 9.1
2023/03/08 19:40:00, 0.4, 8.4
2023/03/08 19:50:00, 0.4, 8.8
2023/03/08 20:00:00, 0.4, 8.4
2023/03/08 20:10:00, 0.4, 8.2
2023/03/08 20:20:00, 0.4, 8.2
2023/03/08 20:30:00, 0.4, 8.0
2023/03/08 20:40:00, 0.4, 8.1
2023/03/08 20:50:00, 0.5, 7.8
2023/03/08 21:00:00, 0.5, 7.5
2023/03/08 21:10:00, 0.5, 7.6
2023/03/08 21:20:00, 0.5, 7.4
2023/03/08 21:30:00, 0.5, 7.2
2023/03/08 21:40:00, 0.6, 7.3
2023/03/08 21:50:00, 0.5, 6.2
2023/03/08 22:00:00, 0.5, 6.7
2023/03/08 22:10:00, 0.5, 7.0
2023/03/08 22:20:00, 0.4, 6.0
2023/03/08 22:30:00, 0.4, 6.0
2023/03/08 22:40:00, 0.5, 5.8
2023/03/08 22:50:00, 0.5, 6.0
2023/03/08 23:00:00, 0.5, 6.4
2023/03/08 23:10:00, 0.5, 5.8
2023/03/08 23:20:00, 0.5, 6.0
2023/03/08 23:30:00, 0.5, 5.3
2023/03/08 23:40:00, 0.4, 5.4
2023/03/08 23:50:00, 0.4, 5.4
